GFSCGP_700_temp_021.txt.gz
Temp
9 9 9 10 8 8 8 8 9 10 10 9 9 9 11 13 11 10 9 10 10 9 9 9 9 9 9 9 10 10 10 9 10 10 10 10 10 10 10 9 10 9 9 9
9 9 9 9 9 9 8 8 9 9 9 8 8 9 12 12 12 11 9 9 9 8 8 8 8 8 8 7 7 8 8 8 7 9 9 9 9 9 8 8 9 9 8 8
8 8 9 9 8 7 8 8 8 8 7 7 9 10 12 12 12 11 9 8 8 8 8 8 8 8 7 8 9 8 8 6 6 7 8 8 8 8 8 9 9 9 8 8
8 8 8 7 6 6 7 6 6 6 6 9 9 9 10 11 11 9 8 8 8 7 7 7 8 8 8 8 8 8 8 8 8 6 8 9 8 8 8 8 9 8 7 7
8 6 6 6 6 5 5 6 6 5 6 6 8 9 12 11 10 7 6 7 6 6 6 6 6 7 7 7 7 8 8 8 8 8 8 8 9 8 8 8 8 8 7 7
6 6 5 5 5 5 5 5 6 7 7 7 10 10 11 11 9 6 4 5 3 4 4 4 5 6 6 5 6 6 6 6 7 8 8 8 8 8 8 8 8 7 7 7
6 6 5 4 4 4 4 5 8 10 8 10 10 9 10 10 7 4 2 1 -0 -1 -1 1 3 4 4 5 5 4 5 5 6 6 8 8 8 8 8 7 7 7 7 7
5 7 4 2 2 2 3 4 6 7 10 10 7 7 9 8 5 2 1 0 -0 -2 -2 2 1 1 2 2 2 3 3 3 3 3 5 7 7 8 8 7 7 8 7 6
3 5 3 2 2 2 4 4 2 2 4 5 6 8 8 8 5 3 1 -1 -1 -2 -4 -4 -4 -1 -0 0 1 2 2 2 3 3 3 4 5 7 8 8 6 8 8 6
1 0 2 1 1 1 2 1 1 3 4 6 8 7 6 3 0 -1 -1 -1 -2 -3 -2 -1 -4 -4 -4 -3 -3 -2 -1 1 1 2 2 3 3 5 7 7 6 7 8 6
-1 -1 2 1 1 1 1 1 0 0 1 3 3 3 3 -0 -2 -3 -3 -3 -3 -4 -4 -4 -4 -5 -5 -5 -5 -5 -5 -2 -0 1 1 2 3 3 5 6 5 6 6 6
-3 -1 -1 -0 -0 -1 -2 -1 -2 -2 -1 -1 -2 -2 -2 -2 -3 -3 -3 -3 -3 -4 -5 -5 -5 -5 -5 -5 -5 -6 -6 -5 -2 -0 1 2 2 2 3 3 4 3 5 6
-4 -2 -2 2 -1 -2 -2 -2 -2 -3 -4 -4 -3 -3 -3 -3 -3 -3 -3 -4 -4 -5 -5 -6 -5 -5 -5 -6 -6 -6 -6 -5 -5 -1 0 1 2 1 2 2 1 1 3 5
-4 -5 -3 -1 -1 -2 -3 -3 -4 -4 -4 -4 -4 -4 -3 -3 -3 -3 -4 -4 -5 -5 -6 -6 -6 -6 -6 -7 -6 -6 -6 -4 -4 -3 -2 -1 1 0 1 1 0 -1 1 4
-5 -5 -4 -4 -4 -5 -5 -5 -5 -5 -4 -4 -4 -4 -3 -3 -3 -4 -5 -5 -6 -6 -6 -6 -6 -7 -7 -7 -7 -6 -6 -6 -5 -4 -4 -2 -1 -0 -0 0 1 -1 1 3
-6 -6 -6 -6 -6 -6 -5 -5 -5 -5 -4 -4 -3 -3 -3 -4 -5 -5 -6 -6 -6 -6 -6 -6 -7 -7 -7 -7 -7 -7 -7 -7 -7 -6 -5 -4 -4 -2 -1 -1 1 0 -0 2
-6 -6 -7 -6 -5 -5 -5 -3 -3 -4 -4 -4 -4 -4 -5 -5 -6 -6 -7 -7 -6 -6 -7 -7 -7 -7 -7 -7 -7 -8 -7 -7 -7 -5 -5 -5 -4 -3 -2 -2 -1 1 0 1
-4 -6 -6 -7 -6 -4 -3 -4 -4 -4 -4 -4 -5 -5 -5 -6 -7 -7 -7 -7 -7 -7 -7 -8 -8 -7 -6 -7 -7 -8 -8 -8 -7 -7 -5 -5 -5 -4 -3 -2 -1 -0 0 1
-6 -7 -7 -7 -5 -5 -4 -4 -5 -5 -5 -6 -6 -7 -7 -7 -8 -6 -7 -8 -8 -8 -8 -8 -8 -7 -6 -7 -7 -7 -7 -7 -7 -7 -5 -4 -5 -4 -4 -3 -2 -1 0 0
-6 -6 -7 -6 -7 -6 -5 -6 -6 -7 -6 -7 -7 -8 -8 -8 -9 -7 -8 -8 -8 -8 -8 -8 -7 -6 -6 -6 -7 -6 -7 -6 -6 -6 -5 -4 -3 -3 -3 -3 -2 -2 -0 1
-5 -5 -6 -6 -6 -6 -5 -6 -6 -8 -7 -7 -7 -8 -9 -9 -9 -9 -8 -8 -8 -8 -7 -7 -7 -7 -6 -6 -6 -6 -6 -6 -6 -5 -5 -4 -3 -2 -3 -3 -3 -2 -1 0
-7 -7 -6 -6 -6 -6 -6 -6 -7 -7 -8 -8 -8 -8 -8 -8 -8 -8 -8 -8 -8 -8 -7 -7 -7 -6 -6 -6 -6 -6 -6 -6 -6 -6 -5 -5 -2 -2 -2 -2 -2 -2 -1 0
-6 -6 -6 -7 -7 -7 -7 -8 -8 -8 -8 -8 -9 -8 -8 -9 -9 -9 -8 -8 -8 -8 -7 -7 -7 -6 -6 -7 -7 -7 -6 -6 -6 -6 -5 -5 -4 -2 -2 -3 -2 -1 -1 0
-7 -7 -7 -7 -7 -8 -8 -8 -8 -8 -8 -9 -9 -10 -9 -9 -10 -9 -9 -8 -8 -8 -7 -7 -7 -7 -6 -7 -7 -7 -7 -6 -6 -6 -5 -5 -5 -4 -3 -3 -2 -1 -0 0
-6 -8 -8 -8 -8 -8 -8 -8 -8 -8 -8 -9 -10 -10 -10 -10 -10 -10 -10 -9 -8 -8 -8 -7 -7 -7 -7 -7 -7 -7 -7 -6 -6 -6 -6 -5 -5 -5 -4 -2 -2 -1 -1 -0
-7 -8 -8 -8 -8 -9 -8 -8 -8 -9 -9 -9 -10 -10 -10 -10 -11 -11 -10 -9 -9 -8 -8 -8 -8 -7 -7 -7 -7 -7 -7 -7 -6 -6 -6 -6 -6 -5 -4 -3 -2 -1 -2 -2

GFSCGP_700_temp_024.txt.gz
Temp
9 10 9 9 10 10 10 9 9 9 9 9 9 9 12 12 11 10 9 9 10 10 9 9 9 10 10 9 9 8 7 7 6 6 6 8 7 9 9 9 8 8 8 8
9 9 9 9 9 9 9 8 8 9 9 9 10 10 11 12 11 10 9 9 9 9 9 9 9 9 9 9 8 7 6 6 6 5 5 5 6 7 8 8 8 8 8 8
8 9 8 9 8 7 7 8 8 7 8 9 8 10 11 11 11 9 9 9 9 8 8 8 8 8 8 8 8 7 7 7 7 5 5 4 5 5 7 9 9 8 8 8
8 8 8 7 7 7 6 7 7 7 6 7 8 7 10 9 10 8 8 7 7 7 7 7 8 7 7 7 7 7 7 7 6 5 5 4 3 5 6 7 8 8 8 8
8 7 6 7 6 6 6 6 6 7 6 6 7 8 11 11 7 5 4 4 4 5 6 6 6 6 6 6 7 6 5 5 5 5 4 4 4 2 5 6 7 8 7 8
7 7 6 6 7 6 5 5 6 9 7 7 9 8 10 9 6 3 2 2 1 0 1 3 3 4 4 4 4 5 5 4 4 4 5 5 4 4 3 5 5 7 7 7
7 7 6 6 6 5 5 5 6 8 6 6 9 8 9 7 4 2 1 -0 -0 -0 -0 1 3 3 3 3 3 3 3 3 4 3 3 3 4 2 3 5 5 6 7 7
5 7 5 3 4 4 5 3 5 5 6 5 8 6 7 6 2 1 1 -0 -0 -0 -1 -2 -2 -1 -1 0 1 1 1 1 1 0 1 3 2 3 3 2 3 4 6 7
3 5 5 4 4 4 4 4 3 2 3 4 5 7 7 6 3 3 2 1 -0 -2 -2 -2 -2 -2 -3 -4 -4 -3 -3 -2 -2 -2 -3 0 2 2 2 2 2 2 2 5
1 1 4 3 3 3 2 2 2 2 2 3 6 6 5 5 4 3 1 -1 -1 -0 -1 -1 -1 -2 -2 -3 -5 -5 -5 -4 -3 -3 -4 -3 0 1 1 1 1 1 1 -0
1 -0 3 2 2 2 2 1 1 1 1 1 0 2 3 1 -1 -1 -1 -2 -3 -3 -4 -4 -4 -4 -4 -5 -5 -6 -6 -5 -5 -4 -4 -3 -3 -0 0 1 0 -1 -1 -1
-0 0 -1 2 1 1 1 -0 -0 0 0 -1 -3 -2 1 -2 -2 -3 -3 -3 -3 -4 -4 -4 -5 -5 -5 -6 -6 -6 -6 -6 -6 -6 -5 -4 -4 -2 -1 -1 -0 -2 -3 -2
-1 -1 -2 2 -0 -1 -1 -1 -2 -2 -2 -3 -4 -3 -2 -3 -3 -3 -3 -3 -4 -4 -5 -5 -6 -6 -6 -6 -6 -6 -6 -7 -6 -6 -6 -5 -5 -5 -3 -3 -2 -2 -4 -4
-2 -2 -2 -2 -1 -2 -3 -3 -3 -3 -3 -4 -4 -4 -4 -4 -3 -3 -3 -4 -4 -5 -5 -5 -6 -6 -6 -6 -6 -7 -7 -7 -6 -6 -6 -6 -5 -6 -5 -4 -4 -3 -4 -4
-3 -4 -4 -4 -3 -3 -4 -5 -4 -4 -4 -4 -4 -4 -4 -3 -4 -4 -4 -5 -5 -5 -6 -6 -6 -6 -6 -7 -7 -7 -7 -7 -7 -7 -6 -6 -6 -6 -6 -5 -4 -3 -4 -4
-5 -4 -4 -4 -3 -5 -4 -4 -4 -4 -4 -4 -3 -3 -4 -4 -4 -5 -5 -6 -6 -6 -7 -7 -7 -7 -7 -7 -7 -7 -7 -7 -7 -7 -6 -6 -6 -6 -6 -5 -4 -4 -4 -4
-4 -4 -6 -6 -5 -6 -5 -3 -3 -4 -4 -4 -4 -5 -5 -5 -6 -6 -6 -7 -7 -7 -7 -8 -7 -8 -7 -7 -7 -7 -7 -7 -7 -7 -6 -6 -6 -7 -6 -6 -5 -3 -4 -4
-2 -4 -6 -6 -6 -6 -3 -3 -4 -4 -4 -5 -5 -5 -6 -6 -6 -6 -6 -7 -7 -7 -8 -7 -8 -8 -7 -6 -6 -7 -7 -7 -8 -7 -6 -6 -6 -6 -7 -6 -5 -4 -4 -5
-3 -5 -6 -6 -6 -5 -4 -4 -5 -5 -6 -6 -6 -7 -7 -7 -7 -6 -6 -7 -8 -8 -8 -8 -8 -7 -7 -7 -7 -7 -7 -7 -7 -7 -6 -7 -6 -7 -7 -6 -6 -5 -4 -4
-5 -6 -6 -6 -6 -7 -4 -4 -5 -6 -6 -6 -7 -7 -7 -7 -8 -7 -7 -7 -7 -8 -8 -8 -8 -8 -7 -7 -7 -7 -7 -7 -7 -7 -6 -6 -6 -6 -6 -7 -6 -5 -4 -3
-5 -5 -6 -6 -6 -5 -5 -5 -5 -6 -7 -7 -7 -8 -8 -8 -8 -8 -8 -8 -8 -8 -8 -8 -8 -8 -8 -8 -8 -7 -7 -7 -7 -7 -7 -6 -6 -6 -6 -6 -5 -4 -4 -4
-5 -6 -6 -6 -6 -6 -5 -4 -6 -7 -7 -8 -8 -8 -8 -8 -8 -8 -9 -9 -9 -9 -9 -8 -9 -8 -7 -8 -8 -7 -7 -7 -7 -7 -7 -6 -6 -6 -6 -6 -5 -5 -3 -3
-6 -4 -5 -6 -5 -5 -6 -6 -7 -7 -8 -8 -8 -8 -8 -9 -9 -9 -10 -10 -10 -9 -9 -9 -9 -9 -7 -8 -8 -7 -7 -7 -7 -6 -6 -6 -6 -6 -6 -5 -5 -3 -4 -4
-5 -5 -6 -6 -4 -5 -6 -7 -8 -8 -8 -8 -9 -9 -9 -10 -10 -10 -10 -10 -10 -10 -10 -10 -11 -10 -8 -8 -8 -9 -7 -7 -7 -6 -6 -6 -6 -5 -6 -6 -5 -5 -4 -4
-4 -6 -4 -6 -5 -7 -7 -7 -8 -8 -9 -9 -9 -10 -11 -11 -10 -11 -11 -11 -12 -12 -11 -11 -11 -11 -10 -9 -8 -8 -7 -7 -7 -7 -6 -6 -6 -5 -6 -7 -6 -5 -4 -3
-4 -5 -6 -7 -7 -7 -7 -7 -8 -9 -9 -10 -11 -11 -11 -12 -12 -12 -12 -12 -12 -11 -11 -11 -11 -11 -10 -10 -9 -8 -8 -7 -7 -7 -7 -6 -6 -6 -6 -6 -6 -4 -4 -4

GFSCGP_700_temp_030.txt.gz
Temp
11 10 10 9 9 8 8 8 8 9 9 9 9 8 8 9 9 9 9 8 8 8 8 8 8 8 8 8 8 9 9 9 8 8 8 8 7 5 5 4 5 4 5 4
10 9 9 8 8 7 8 8 8 9 8 8 8 7 6 6 7 7 7 7 7 7 7 7 7 7 7 7 7 7 8 7 7 7 7 7 7 7 6 4 4 4 3 4
9 8 8 8 8 8 8 8 8 7 9 8 7 5 4 4 5 6 6 6 6 6 5 5 5 5 6 6 6 6 6 6 6 6 5 6 6 6 5 5 5 3 4 4
8 8 7 7 7 7 8 7 7 7 6 6 6 4 3 2 4 4 4 4 4 5 5 4 4 4 5 5 6 6 6 5 5 5 5 5 4 4 4 4 4 4 4 3
8 7 6 7 7 6 6 7 7 7 5 4 6 4 2 2 3 3 3 3 3 3 3 4 4 4 4 5 5 5 5 5 5 5 5 5 4 4 5 4 4 3 3 3
7 7 7 7 6 6 6 6 7 7 6 3 6 5 1 2 2 2 1 1 1 1 2 2 3 3 3 4 4 4 4 5 5 5 5 6 6 5 5 5 5 4 3 3
8 7 6 6 5 5 5 6 6 5 3 3 6 5 5 3 2 1 1 1 1 1 1 2 2 3 3 3 2 3 2 2 2 2 2 2 3 3 4 3 4 5 4 3
6 5 5 5 5 4 4 4 4 3 1 2 6 5 3 2 1 0 -0 -0 -0 0 -0 -0 -1 -1 -1 -2 -2 -2 -2 -2 -2 -1 -1 -1 -1 -1 -1 -1 -1 -1 -1 1
5 5 5 4 4 4 4 3 3 2 2 0 3 2 1 1 0 0 0 0 0 0 -1 -2 -3 -3 -3 -4 -4 -4 -4 -4 -3 -3 -2 -2 -2 -2 -2 -2 -2 -2 -2 -2
4 4 5 4 4 3 3 2 2 2 -0 -1 1 2 4 1 -0 -0 0 0 -0 -1 -1 -3 -3 -3 -3 -4 -4 -5 -4 -4 -4 -4 -3 -3 -3 -3 -3 -2 -2 -3 -3 -3
4 4 5 4 3 3 2 1 1 1 1 -2 -4 1 4 2 1 1 0 -1 -0 -1 -3 -3 -4 -4 -4 -5 -5 -5 -5 -5 -4 -4 -4 -4 -4 -4 -4 -4 -4 -3 -4 -4
4 3 4 4 3 2 2 1 1 -0 -0 -1 -3 -1 1 1 1 -0 -2 -2 -3 -4 -4 -5 -5 -5 -5 -6 -6 -6 -6 -5 -5 -6 -6 -5 -5 -5 -5 -4 -4 -4 -5 -5
3 2 2 1 1 1 1 -0 -0 -2 -2 -3 -4 -1 2 1 0 -2 -2 -4 -5 -5 -5 -5 -6 -6 -6 -6 -6 -6 -6 -6 -6 -6 -6 -6 -6 -6 -6 -5 -5 -5 -5 -5
2 2 2 3 2 0 0 -0 -1 -2 -4 -4 -4 -1 1 -1 -2 -3 -4 -5 -5 -5 -5 -6 -6 -6 -6 -6 -6 -6 -7 -7 -7 -7 -6 -6 -6 -6 -6 -6 -6 -6 -6 -5
2 1 1 2 1 0 1 -1 -1 -3 -3 -5 1 -3 -2 -3 -4 -5 -4 -5 -5 -5 -6 -6 -7 -7 -7 -7 -7 -7 -7 -7 -7 -7 -7 -7 -6 -6 -6 -6 -6 -6 -6 -6
2 -0 -1 1 1 0 -0 -0 -1 -3 -3 -4 -4 -3 -3 -4 -4 -5 -5 -6 -7 -7 -7 -7 -7 -7 -8 -8 -8 -8 -7 -7 -8 -8 -7 -7 -7 -6 -6 -6 -6 -6 -6 -6
-1 -1 -2 -1 -1 -2 1 2 -1 -3 -3 -4 -4 -3 -4 -4 -5 -6 -7 -7 -7 -8 -9 -9 -9 -9 -8 -8 -9 -9 -9 -9 -8 -8 -7 -7 -7 -7 -7 -7 -7 -6 -6 -6
-0 -2 -3 -3 -4 -7 1 -0 -1 -3 -3 -3 -4 -4 -5 -6 -6 -6 -6 -7 -8 -8 -9 -9 -9 -9 -9 -10 -9 -10 -10 -9 -9 -8 -8 -8 -8 -7 -7 -7 -7 -6 -7 -7
-1 -2 -3 -3 -6 -3 1 1 -2 -3 -2 -3 -5 -6 -6 -6 -6 -6 -7 -8 -9 -9 -10 -10 -10 -10 -10 -10 -10 -10 -10 -10 -9 -9 -8 -8 -8 -7 -7 -6 -6 -7 -6 -7
-1 -3 -5 -5 -6 -9 -0 -1 -3 -4 -4 -4 -6 -6 -6 -6 -7 -6 -7 -8 -8 -8 -9 -10 -10 -10 -10 -10 -11 -11 -11 -11 -11 -10 -9 -9 -8 -8 -7 -6 -6 -6 -6 -6
-1 -4 -5 -5 -7 -4 0 -2 -3 -6 -3 -5 -6 -6 -6 -7 -8 -8 -8 -8 -8 -9 -9 -9 -10 -10 -10 -11 -11 -11 -11 -11 -11 -11 -11 -10 -9 -8 -7 -6 -6 -6 -6 -6
-1 -2 -4 -6 -7 -6 -1 -2 -4 -4 -5 -5 -6 -6 -7 -7 -8 -8 -8 -9 -9 -9 -9 -9 -10 -10 -10 -11 -11 -11 -11 -11 -12 -12 -11 -11 -10 -8 -6 -6 -6 -6 -6 -6
-1 0 -1 -2 -1 -1 -2 -3 -4 -5 -6 -5 -6 -7 -8 -8 -8 -8 -9 -9 -9 -9 -10 -10 -10 -10 -10 -10 -11 -11 -11 -11 -12 -12 -11 -11 -10 -8 -7 -6 -6 -6 -6 -7
-1 -2 -2 -2 1 -2 -3 -4 -5 -6 -5 -6 -8 -8 -8 -8 -8 -9 -9 -9 -9 -9 -10 -10 -10 -10 -10 -11 -11 -11 -11 -11 -12 -12 -11 -10 -10 -8 -7 -6 -6 -6 -7 -6
-1 -3 -2 -2 -1 -2 -3 -4 -4 -5 -6 -7 -8 -8 -8 -8 -9 -9 -9 -9 -10 -10 -9 -10 -10 -10 -10 -11 -11 -11 -11 -11 -12 -12 -11 -10 -9 -8 -7 -6 -6 -7 -7 -7
1 -0 -2 -2 -2 -3 -3 -4 -5 -6 -7 -8 -8 -7 -8 -9 -9 -9 -9 -10 -10 -10 -9 -9 -9 -10 -10 -10 -10 -10 -11 -11 -11 -11 -10 -9 -9 -8 -7 -6 -6 -7 -7 -6

GFSCGP_700_temp_033.txt.gz
Temp
10 10 9 9 9 8 8 8 8 8 8 6 7 7 7 7 6 7 7 7 7 6 6 6 6 6 6 6 6 7 7 7 7 7 6 6 7 7 7 7 6 5 4 4
9 9 9 8 8 8 7 7 8 8 7 6 6 6 6 6 5 5 6 6 5 5 5 5 5 5 5 5 5 5 5 5 5 5 6 6 6 6 5 5 5 4 4 3
9 8 8 8 7 7 7 8 8 7 7 6 5 4 4 5 5 5 5 5 5 5 4 4 4 4 4 4 4 4 5 5 4 4 4 3 3 3 4 4 4 4 4 4
8 8 7 7 7 7 7 7 7 7 6 6 4 4 4 4 4 4 4 4 4 4 4 4 4 4 4 4 4 4 4 4 5 5 5 4 4 4 4 4 3 3 3 3
7 7 7 7 7 6 6 6 6 6 5 4 5 3 3 3 2 2 2 2 2 2 3 3 3 3 4 3 3 3 4 4 4 4 5 5 5 5 5 5 5 5 4 4
7 7 7 6 6 6 6 7 7 6 5 3 5 4 3 3 2 1 1 1 1 1 1 1 1 2 2 2 3 3 3 3 3 3 3 3 3 3 4 4 4 4 4 4
7 6 6 6 6 6 6 6 6 4 2 2 4 4 5 3 2 1 0 0 0 0 0 0 1 1 1 0 -0 -0 -0 0 0 -0 0 -0 -1 -1 -0 0 1 1 1 0
6 6 6 6 6 5 5 4 4 3 1 1 5 4 4 3 2 1 1 0 0 -0 0 0 0 -1 -1 -2 -3 -3 -3 -3 -3 -2 -2 -2 -2 -3 -2 -2 -2 -1 -1 -2
7 6 6 5 5 4 4 3 3 2 1 -1 3 3 4 4 3 2 1 0 0 -0 0 0 -1 -2 -3 -4 -4 -4 -5 -5 -5 -5 -4 -4 -4 -4 -3 -3 -3 -3 -3 -2
6 6 6 5 5 4 3 3 2 2 0 -1 1 2 5 3 3 2 1 0 -0 0 -0 -1 -2 -3 -4 -5 -5 -5 -5 -5 -5 -5 -4 -4 -4 -4 -4 -4 -3 -3 -3 -3
5 5 5 4 4 3 2 2 2 1 1 -2 -4 1 4 3 2 1 -0 -1 -1 -1 -2 -3 -4 -4 -5 -5 -5 -6 -6 -6 -6 -6 -6 -5 -5 -5 -4 -4 -3 -3 -3 -3
5 5 4 4 3 3 3 2 1 1 -0 -1 -4 -0 3 2 1 0 -1 -1 -1 -2 -4 -4 -5 -5 -6 -6 -6 -7 -7 -7 -7 -6 -6 -6 -6 -5 -5 -5 -5 -5 -4 -4
4 3 3 2 2 2 2 2 1 0 -1 -2 -4 1 3 2 1 -1 -2 -2 -3 -4 -4 -5 -5 -5 -6 -6 -7 -8 -8 -8 -8 -7 -7 -7 -7 -7 -7 -6 -6 -6 -6 -5
3 3 3 4 4 2 1 1 -0 -1 -2 -2 -2 1 3 1 -1 -2 -2 -4 -4 -4 -5 -5 -6 -6 -6 -6 -7 -7 -7 -7 -7 -7 -7 -7 -7 -7 -7 -7 -7 -6 -6 -6
2 2 3 3 2 1 2 3 1 -1 -1 -3 3 -0 2 -1 -3 -4 -4 -4 -4 -5 -6 -6 -6 -6 -7 -7 -8 -9 -9 -9 -9 -9 -9 -8 -8 -8 -8 -8 -7 -7 -6 -6
2 1 2 3 3 2 2 3 1 0 -0 -1 0 0 -1 -3 -4 -4 -4 -5 -6 -6 -6 -6 -7 -7 -7 -8 -8 -9 -9 -10 -10 -10 -10 -9 -9 -9 -8 -8 -8 -7 -7 -6
1 1 -0 -0 0 0 2 4 3 1 0 -0 -1 -0 -2 -3 -3 -4 -6 -6 -6 -6 -7 -7 -7 -7 -8 -9 -10 -10 -10 -10 -10 -10 -10 -10 -10 -9 -9 -9 -8 -7 -7 -7
1 -0 -2 -2 -2 -5 3 2 1 1 0 -1 -1 -2 -4 -3 -5 -6 -5 -6 -6 -7 -7 -7 -8 -8 -9 -9 -9 -10 -10 -10 -10 -11 -11 -11 -11 -10 -9 -9 -8 -8 -7 -7
0 -1 -3 -3 -4 -1 2 3 1 -0 0 -1 -2 -2 -4 -5 -5 -4 -6 -7 -7 -7 -8 -8 -9 -9 -9 -9 -10 -10 -10 -10 -11 -11 -11 -11 -12 -11 -10 -10 -9 -8 -7 -7
0 -2 -4 -5 -5 -9 2 0 -1 -2 -2 -1 -3 -4 -5 -5 -6 -4 -6 -6 -6 -7 -8 -8 -9 -9 -9 -9 -10 -10 -10 -10 -11 -11 -11 -11 -12 -11 -11 -11 -9 -8 -7 -7
0 -2 -3 -5 -6 -3 2 -1 -2 -4 -2 -2 -4 -5 -5 -6 -6 -6 -6 -6 -7 -8 -8 -8 -8 -8 -9 -9 -10 -10 -10 -11 -11 -11 -11 -11 -12 -11 -11 -11 -10 -8 -7 -7
0 -0 -2 -5 -7 -4 1 -1 -2 -2 -3 -4 -4 -5 -5 -6 -6 -6 -7 -7 -8 -8 -8 -8 -8 -8 -8 -9 -10 -10 -10 -11 -11 -12 -11 -11 -12 -12 -11 -11 -11 -9 -8 -7
-1 0 0 -2 1 0 -0 -1 -3 -3 -4 -4 -4 -5 -6 -5 -6 -6 -7 -7 -8 -8 -9 -9 -9 -8 -9 -9 -10 -10 -11 -10 -11 -11 -12 -11 -12 -12 -11 -11 -11 -9 -8 -7
-1 -1 -2 -2 2 -0 -1 -2 -3 -4 -4 -4 -5 -5 -6 -6 -6 -7 -8 -8 -8 -9 -9 -9 -9 -9 -9 -9 -10 -11 -10 -10 -10 -10 -11 -11 -12 -12 -11 -11 -10 -9 -7 -7
-2 -2 -2 -1 -1 -1 -2 -3 -3 -4 -4 -5 -5 -5 -6 -6 -7 -8 -8 -9 -9 -9 -9 -9 -9 -10 -10 -10 -10 -10 -10 -10 -10 -10 -10 -10 -11 -11 -10 -10 -9 -8 -7 -7
1 -0 -1 -1 -2 -2 -2 -3 -3 -4 -4 -5 -5 -6 -6 -7 -8 -8 -9 -9 -9 -9 -9 -9 -10 -10 -10 -10 -10 -10 -10 -10 -10 -9 -10 -10 -10 -9 -9 -9 -8 -7 -7 -7

GFSCGP_700_temp_036.txt.gz
Temp
10 10 10 9 9 8 8 8 8 8 7 6 7 8 8 8 7 6 6 6 6 6 5 5 5 5 5 5 5 4 4 4 4 4 3 3 3 4 5 5 6 6 6 6
10 9 9 8 8 7 8 8 7 7 6 6 6 7 6 6 6 5 4 4 5 5 4 4 4 4 4 4 4 4 4 4 4 4 3 3 3 3 3 3 4 4 5 5
9 8 8 7 7 7 7 7 6 6 5 5 5 5 6 5 5 5 4 4 3 3 3 3 3 3 3 3 3 3 3 4 4 4 4 4 4 4 4 3 3 3 3 4
8 8 8 7 7 7 7 6 6 6 5 5 4 5 6 6 5 4 4 5 5 4 4 3 3 3 3 3 3 3 3 3 3 3 4 4 4 5 5 5 5 4 4 3
8 7 7 7 6 6 6 6 6 6 5 4 4 2 7 6 5 4 4 4 4 4 3 3 2 2 2 2 2 2 2 3 3 3 3 3 3 3 3 3 3 4 3 3
7 7 7 6 6 6 6 7 7 6 5 3 4 3 6 6 6 4 4 3 2 2 1 1 1 1 1 1 1 2 2 2 2 1 1 1 0 0 0 0 0 -0 -0 0
7 7 7 6 6 6 6 6 6 4 3 3 4 3 6 5 5 4 3 3 2 1 1 0 0 0 0 0 0 0 0 0 -0 -1 -1 -2 -2 -2 -2 -3 -3 -3 -2 -2
7 7 6 6 6 6 6 5 5 4 1 1 4 4 5 5 4 4 3 3 3 1 0 -0 -0 -0 -1 -1 -2 -2 -2 -2 -3 -3 -3 -4 -4 -4 -4 -3 -3 -4 -4 -3
7 7 6 6 6 5 5 5 4 3 1 -1 3 4 4 5 5 4 3 3 2 1 0 -0 -1 -1 -2 -2 -2 -2 -3 -3 -4 -4 -4 -4 -5 -5 -5 -4 -4 -4 -4 -4
6 6 6 6 6 5 5 4 3 2 0 -0 1 3 6 5 4 3 2 1 1 0 -1 -1 -1 -2 -2 -3 -3 -3 -4 -4 -5 -5 -6 -6 -6 -6 -6 -6 -5 -5 -4 -5
5 6 6 5 5 5 4 3 2 2 1 -2 -4 2 5 4 3 2 1 -0 -1 -1 -1 -2 -2 -3 -4 -4 -4 -4 -4 -5 -5 -6 -7 -7 -7 -7 -7 -7 -6 -6 -5 -5
6 5 5 5 5 5 4 3 2 1 1 -0 -3 1 4 3 2 0 -1 -1 -1 -1 -2 -3 -3 -4 -4 -4 -4 -4 -4 -5 -6 -6 -6 -7 -7 -8 -8 -7 -7 -7 -7 -6
5 4 4 5 4 4 4 4 2 1 0 -0 -3 2 4 3 2 -0 -1 -2 -1 -2 -3 -4 -4 -4 -4 -4 -4 -5 -6 -6 -7 -7 -7 -8 -8 -8 -9 -8 -8 -8 -8 -7
4 4 4 5 5 3 3 3 1 -0 -1 -0 1 2 4 2 1 0 -1 -1 -1 -3 -4 -4 -4 -5 -5 -5 -6 -7 -7 -7 -8 -8 -8 -8 -9 -10 -10 -10 -9 -9 -9 -8
3 3 4 4 3 2 3 3 1 -0 -0 -2 4 1 4 2 -0 -0 -1 -2 -3 -4 -4 -5 -5 -5 -5 -6 -6 -7 -7 -8 -8 -8 -9 -9 -9 -10 -10 -10 -10 -10 -10 -9
3 2 3 3 4 2 2 4 3 3 1 1 3 2 2 0 -0 -1 -2 -3 -4 -4 -4 -4 -4 -5 -6 -6 -7 -7 -7 -8 -8 -9 -9 -9 -10 -10 -10 -10 -10 -10 -10 -10
1 1 0 1 2 1 1 5 4 3 2 2 2 2 1 0 -1 -2 -3 -4 -5 -4 -4 -5 -5 -5 -6 -7 -7 -7 -7 -8 -8 -9 -9 -10 -10 -10 -11 -11 -11 -11 -10 -10
1 -1 -2 -1 -1 -5 4 4 3 3 2 2 1 1 -0 -1 -2 -3 -5 -5 -4 -5 -5 -5 -6 -6 -6 -7 -7 -7 -8 -8 -9 -9 -10 -10 -11 -11 -11 -11 -11 -11 -11 -11
0 -2 -3 -2 -3 1 2 4 2 1 1 1 0 -0 -2 -3 -4 -4 -4 -5 -5 -5 -6 -6 -7 -7 -7 -7 -7 -7 -7 -8 -9 -10 -10 -11 -11 -11 -11 -11 -11 -11 -11 -11
0 -2 -4 -5 -4 -8 2 2 1 -0 -0 0 -1 -3 -4 -4 -4 -3 -5 -5 -5 -6 -6 -7 -7 -7 -8 -8 -8 -9 -9 -9 -9 -10 -10 -11 -11 -12 -12 -12 -11 -12 -11 -11
0 -3 -3 -5 -6 -1 1 1 -0 -2 -0 -1 -2 -3 -4 -4 -5 -5 -5 -5 -5 -5 -6 -6 -7 -8 -8 -8 -9 -9 -9 -10 -10 -10 -10 -10 -11 -12 -12 -12 -12 -12 -12 -11
-0 -0 -1 -4 -7 -4 1 0 -1 -1 -2 -2 -3 -4 -4 -5 -4 -5 -5 -5 -6 -6 -6 -6 -7 -8 -8 -9 -9 -9 -10 -10 -10 -10 -10 -10 -11 -11 -12 -12 -12 -12 -11 -11
-1 -0 -0 -1 0 0 0 -0 -1 -2 -2 -3 -3 -4 -4 -4 -5 -5 -5 -6 -6 -7 -7 -8 -8 -8 -9 -9 -10 -10 -10 -10 -10 -10 -10 -10 -10 -11 -12 -12 -12 -11 -10 -10
-1 -2 -2 -1 1 0 -1 -1 -2 -2 -3 -3 -4 -5 -5 -5 -5 -5 -6 -6 -6 -7 -8 -8 -8 -9 -9 -9 -10 -11 -10 -10 -10 -10 -10 -11 -10 -10 -10 -11 -11 -10 -10 -9
-2 -2 -1 -1 -0 -1 -1 -2 -2 -3 -3 -4 -4 -5 -5 -5 -6 -6 -6 -6 -7 -7 -8 -9 -9 -9 -9 -9 -10 -11 -10 -10 -10 -10 -10 -10 -10 -9 -9 -10 -10 -9 -8 -7
0 0 -1 -1 -1 -2 -2 -2 -2 -3 -4 -4 -5 -5 -6 -6 -6 -6 -6 -7 -8 -8 -9 -9 -9 -9 -9 -10 -10 -10 -10 -10 -10 -10 -10 -10 -10 -9 -9 -8 -8 -8 -7 -7

GFSCGP_700_temp_042.txt.gz
Temp
10 10 9 10 10 10 9 9 8 8 9 9 9 8 8 8 8 7 7 6 5 5 5 5 4 4 4 4 3 3 3 3 3 3 3 3 3 3 3 3 3 4 4 4
10 10 10 10 10 9 8 8 7 8 8 8 8 9 9 9 7 7 6 5 5 5 4 4 3 3 3 3 3 3 3 3 4 4 4 4 4 4 4 4 4 4 4 4
9 9 9 9 8 8 8 7 7 7 7 8 8 8 9 9 8 7 6 6 5 4 3 3 3 2 3 3 3 4 4 4 4 5 5 5 5 5 5 5 4 4 3 3
9 9 8 8 7 7 6 8 7 6 5 8 6 10 8 8 8 8 7 6 5 4 3 2 3 3 3 3 3 3 4 4 4 4 4 4 4 4 4 4 4 4 3 3
8 8 8 7 7 7 6 7 6 6 5 4 4 5 8 9 9 8 7 6 5 4 4 4 4 4 3 3 3 3 3 3 3 2 2 2 2 3 3 3 3 3 2 2
7 7 7 7 7 7 6 6 6 6 4 7 6 5 11 9 8 7 7 7 6 6 5 4 4 3 2 2 2 2 2 2 2 1 1 1 1 1 1 1 1 1 0 -0
7 7 6 6 6 6 6 6 9 9 8 11 4 4 9 8 8 8 7 7 6 5 4 4 3 2 2 2 1 1 1 1 1 0 0 0 0 0 -0 -0 -1 -1 -1 -2
6 6 6 6 6 6 6 6 8 10 11 10 3 6 8 8 8 7 6 6 5 4 4 3 2 2 1 1 1 0 -0 0 -0 -0 -1 -1 -1 -1 -1 -2 -2 -2 -3 -3
6 6 6 6 6 6 6 5 6 5 4 5 8 6 7 8 7 7 6 5 4 3 2 1 1 0 -0 -0 -1 -1 -1 -1 -1 -1 -1 -2 -2 -2 -2 -3 -3 -4 -4 -5
7 6 6 6 6 6 5 5 5 5 8 8 9 6 8 7 6 6 5 4 3 2 1 0 -1 -1 -1 -1 -1 -1 -1 -1 -2 -2 -2 -2 -2 -3 -4 -4 -5 -5 -5 -5
6 6 6 6 6 4 5 4 5 5 4 8 8 9 7 6 6 5 4 3 1 1 -0 -1 -1 -1 -1 -2 -2 -2 -2 -2 -1 -2 -2 -3 -4 -4 -4 -5 -5 -5 -6 -6
6 5 5 5 6 5 5 5 4 4 6 3 2 4 6 6 5 4 3 2 0 -0 -1 -1 -1 -2 -2 -2 -2 -2 -2 -2 -2 -3 -3 -4 -4 -4 -4 -5 -5 -6 -7 -7
5 5 5 5 5 5 5 6 5 4 3 2 5 6 5 5 4 3 2 1 1 0 -1 -1 -2 -2 -2 -2 -3 -2 -2 -3 -3 -4 -4 -5 -5 -4 -5 -5 -6 -7 -8 -8
4 5 5 6 5 5 4 5 4 3 1 4 3 5 5 3 1 2 2 2 1 -0 -1 -2 -2 -3 -3 -3 -3 -3 -3 -4 -4 -5 -5 -5 -5 -5 -6 -6 -7 -8 -8 -9
4 4 5 5 4 4 4 4 3 3 5 1 4 3 4 4 2 1 1 1 0 -1 -2 -3 -3 -3 -3 -3 -3 -3 -4 -5 -6 -6 -6 -6 -6 -6 -6 -7 -8 -9 -9 -10
3 3 3 3 4 3 3 4 4 4 4 2 3 3 4 2 1 1 0 -0 -1 -2 -3 -3 -4 -3 -3 -3 -4 -4 -5 -6 -7 -7 -7 -7 -7 -7 -8 -9 -9 -10 -10 -10
2 2 1 1 3 1 2 5 5 4 4 4 2 2 2 1 0 -0 -1 -1 -2 -3 -4 -4 -4 -3 -4 -4 -5 -5 -6 -7 -7 -7 -7 -8 -8 -8 -9 -9 -9 -10 -11 -11
2 0 -1 -1 1 2 4 3 3 3 3 3 3 2 0 -0 -1 -1 -2 -2 -3 -4 -4 -4 -4 -4 -5 -5 -6 -6 -7 -7 -8 -8 -8 -8 -9 -9 -9 -10 -10 -11 -11 -11
2 -0 -2 -1 -2 1 2 2 2 1 2 2 1 -0 -1 -1 -1 -2 -3 -3 -4 -4 -4 -4 -4 -5 -5 -6 -6 -7 -8 -8 -8 -9 -9 -9 -10 -9 -10 -10 -11 -11 -11 -11
2 1 -1 -3 -3 -0 2 1 1 0 -0 -0 -0 -1 -1 -2 -3 -4 -3 -4 -4 -4 -4 -4 -5 -5 -6 -6 -7 -8 -8 -9 -9 -9 -9 -10 -10 -9 -10 -10 -11 -11 -11 -11
1 -0 -1 -4 -5 -1 1 0 -0 -1 -0 -1 -2 -2 -2 -3 -3 -3 -4 -4 -5 -5 -5 -5 -5 -6 -7 -7 -7 -8 -9 -9 -9 -10 -10 -10 -10 -10 -10 -10 -10 -10 -10 -11
-0 -1 -1 -3 -5 -2 1 -0 -1 -1 -2 -2 -2 -2 -3 -3 -4 -4 -4 -5 -5 -5 -5 -6 -6 -6 -7 -7 -8 -8 -9 -9 -10 -10 -10 -10 -10 -10 -10 -10 -10 -10 -10 -11
-1 0 -0 -0 0 0 -0 -0 -1 -2 -2 -2 -2 -3 -3 -4 -4 -4 -5 -5 -5 -5 -6 -6 -6 -7 -7 -8 -9 -9 -10 -10 -10 -10 -10 -10 -10 -10 -10 -10 -10 -10 -10 -11
-1 -1 -1 -1 -1 -1 -1 -2 -2 -3 -3 -3 -4 -4 -4 -4 -5 -5 -5 -5 -5 -6 -6 -6 -7 -7 -8 -8 -9 -10 -10 -10 -10 -9 -10 -10 -9 -10 -10 -10 -10 -9 -9 -9
-3 -3 -1 -0 -1 -3 -3 -4 -4 -4 -4 -5 -5 -4 -4 -5 -5 -5 -5 -5 -6 -6 -7 -7 -7 -8 -8 -9 -10 -10 -11 -10 -10 -10 -10 -10 -10 -9 -9 -9 -9 -8 -8 -8
-2 -1 -3 -3 -3 -5 -5 -6 -6 -5 -5 -6 -5 -5 -5 -5 -6 -6 -6 -6 -6 -7 -7 -7 -8 -8 -9 -9 -10 -11 -10 -10 -10 -10 -10 -10 -9 -9 -9 -9 -7 -8 -7 -7

GFSCGP_700_temp_045.txt.gz
Temp
10 10 10 11 10 11 11 10 10 10 8 9 8 8 8 9 9 8 8 7 7 6 7 6 6 5 5 5 5 4 4 4 4 4 4 4 4 4 5 5 5 5 4 4
10 10 10 10 10 10 9 9 10 9 8 8 8 7 7 8 9 8 7 7 6 6 6 6 6 5 5 4 4 3 3 4 4 5 5 5 5 5 5 5 5 5 4 4
9 9 10 10 9 8 8 8 9 8 7 7 8 10 9 8 9 9 8 7 6 6 5 5 5 5 4 3 3 4 4 4 5 5 5 5 5 5 5 5 5 5 5 5
8 9 9 9 7 7 8 8 8 7 6 10 7 11 10 9 9 9 8 8 7 6 6 5 5 4 3 3 4 4 4 4 4 4 3 3 4 4 4 4 4 4 4 4
8 8 8 7 7 7 7 7 7 6 6 7 8 7 10 9 9 9 9 8 8 7 6 5 4 4 4 4 3 3 3 3 3 2 2 2 3 3 3 3 3 3 2 2
7 8 7 6 7 7 7 7 6 5 6 8 10 8 12 9 8 8 8 8 7 6 5 5 4 4 4 3 3 3 2 2 2 2 2 2 2 2 2 2 2 2 1 1
6 6 8 7 6 7 6 6 9 9 8 12 8 8 10 8 9 8 8 7 6 6 5 4 4 3 2 2 2 2 2 2 1 1 1 1 1 1 1 1 1 0 0 -0
9 8 6 7 6 6 6 6 9 10 12 12 6 8 9 9 8 8 7 6 6 5 4 3 3 2 2 2 2 1 1 1 1 1 1 0 0 0 -0 -0 -1 -1 -1 -2
8 8 7 6 6 6 5 6 7 7 9 8 11 9 9 8 8 7 6 5 5 4 3 3 2 1 1 1 1 1 0 0 0 0 -0 -0 -1 -1 -1 -2 -2 -2 -3 -3
5 7 7 7 6 6 6 6 6 6 9 10 12 11 10 8 7 6 5 5 4 4 3 2 1 1 1 1 0 -0 -1 -1 -0 -1 -1 -1 -2 -2 -2 -3 -3 -4 -4 -4
6 6 6 6 6 6 5 5 5 6 7 9 10 11 8 6 5 5 4 3 2 1 1 2 1 1 0 -0 -1 -1 -1 -1 -1 -1 -2 -2 -2 -3 -4 -4 -5 -5 -5 -5
6 5 6 7 6 6 6 5 5 6 8 6 5 6 7 7 6 4 3 2 1 -0 1 1 1 0 -1 -1 -2 -2 -2 -2 -2 -2 -2 -3 -3 -4 -5 -5 -6 -6 -6 -6
5 4 6 6 6 6 5 6 6 4 3 3 6 7 6 6 5 3 3 3 2 1 1 0 -0 -1 -2 -2 -2 -2 -2 -2 -2 -3 -3 -4 -5 -6 -6 -6 -6 -7 -7 -7
5 5 5 6 5 4 4 4 4 3 3 5 6 6 6 6 4 2 1 -0 0 0 0 -1 -1 -2 -2 -2 -2 -3 -3 -3 -3 -4 -4 -5 -6 -7 -7 -8 -8 -8 -8 -9
4 4 3 5 5 4 5 5 3 2 4 3 4 4 4 3 2 1 1 1 1 0 -1 -1 -2 -2 -2 -2 -3 -3 -3 -4 -4 -5 -5 -7 -7 -8 -8 -8 -8 -9 -9 -9
4 2 3 4 3 3 3 4 4 4 2 2 2 2 2 2 1 1 0 -0 -0 -1 -2 -2 -2 -2 -3 -3 -3 -4 -4 -4 -5 -5 -6 -7 -8 -8 -8 -8 -9 -9 -10 -10
2 1 -0 2 2 1 2 4 4 3 2 1 1 2 1 1 0 -0 -0 -0 -0 -1 -2 -2 -2 -3 -3 -3 -4 -4 -4 -5 -6 -6 -7 -7 -8 -8 -8 -9 -10 -9 -10 -10
1 0 -1 -1 0 3 4 3 3 3 2 2 2 2 1 -0 -1 0 -0 -0 -1 -2 -2 -3 -3 -3 -4 -4 -4 -5 -5 -6 -6 -7 -7 -8 -8 -9 -9 -10 -10 -10 -10 -10
3 0 -1 -1 1 2 3 3 2 2 2 1 1 0 -0 -1 -0 -1 -2 -2 -2 -3 -3 -3 -4 -4 -4 -5 -5 -5 -6 -6 -7 -7 -8 -8 -9 -10 -10 -10 -10 -10 -10 -10
2 1 -1 -0 -2 1 2 2 1 0 1 0 -0 -1 -1 -1 -2 -2 -3 -3 -3 -3 -3 -4 -4 -4 -5 -5 -5 -6 -6 -7 -7 -8 -8 -9 -10 -10 -9 -10 -10 -10 -10 -10
1 1 -1 -2 -2 -2 1 1 0 -0 -0 -1 -1 -2 -1 -2 -3 -3 -3 -3 -3 -4 -4 -4 -4 -5 -5 -6 -6 -6 -7 -8 -8 -8 -9 -9 -10 -9 -9 -10 -10 -10 -10 -10
-0 -1 -2 -2 -2 -1 0 -0 -1 -1 -1 -2 -2 -3 -3 -3 -3 -3 -3 -3 -4 -4 -4 -4 -5 -5 -6 -7 -7 -8 -8 -8 -8 -9 -9 -9 -9 -9 -10 -9 -9 -10 -10 -10
-1 -0 -0 -0 0 -0 -1 -1 -2 -2 -3 -3 -4 -4 -4 -4 -4 -4 -4 -4 -5 -5 -5 -5 -6 -6 -7 -7 -8 -8 -8 -8 -9 -9 -9 -9 -9 -9 -9 -9 -9 -10 -10 -8
-1 -1 -1 -1 -1 -2 -2 -3 -4 -5 -5 -5 -4 -3 -4 -4 -4 -5 -5 -5 -5 -5 -5 -6 -6 -7 -7 -8 -9 -9 -9 -9 -9 -9 -9 -9 -9 -9 -9 -9 -9 -9 -7 -7
-2 -2 -1 -2 -3 -3 -3 -4 -4 -4 -4 -3 -4 -5 -4 -5 -5 -6 -6 -6 -6 -6 -6 -7 -7 -7 -8 -8 -9 -9 -9 -10 -10 -9 -9 -9 -9 -9 -9 -9 -8 -6 -6 -7
-2 -2 -4 -4 -5 -5 -4 -4 -4 -4 -4 -4 -5 -5 -6 -6 -6 -6 -6 -6 -6 -6 -7 -7 -8 -8 -8 -9 -9 -9 -9 -10 -10 -9 -9 -9 -9 -8 -8 -8 -7 -7 -7 -7

GFSCGP_700_temp_048.txt.gz
Temp
10 10 11 10 10 11 11 11 11 11 10 10 9 9 8 8 9 9 9 7 7 7 8 7 7 6 6 6 6 6 6 6 6 6 5 5 5 5 5 5 5 5 5 5
9 10 10 10 11 11 10 9 10 10 10 9 9 10 9 8 9 8 8 7 6 5 7 7 7 6 6 6 6 6 5 5 5 5 6 6 6 6 6 6 6 6 5 5
9 9 10 10 10 10 9 9 9 9 9 8 9 9 11 9 9 9 8 7 6 5 6 6 7 7 6 5 5 5 4 4 5 5 5 5 5 5 5 5 5 5 4 4
9 9 9 9 9 8 8 9 8 8 7 8 8 8 9 10 10 10 10 9 7 7 6 5 5 5 5 5 4 4 4 4 3 4 3 3 4 4 4 4 4 4 3 3
9 8 9 9 7 7 7 8 8 8 7 6 8 8 9 9 9 10 10 9 8 7 7 6 6 5 5 4 4 3 3 3 3 3 3 3 3 3 3 3 3 3 2 2
8 8 8 7 8 7 7 7 8 6 6 6 10 9 10 9 10 9 9 9 8 8 7 6 6 5 4 4 4 3 3 3 3 2 2 2 2 2 2 2 2 2 2 1
7 8 8 7 7 7 7 7 8 6 5 8 9 8 10 9 9 8 8 8 7 7 6 5 5 4 4 3 3 2 2 2 2 1 1 1 1 1 1 1 0 0 0 0
8 7 7 8 7 6 6 6 7 7 8 9 8 8 10 9 9 8 7 7 6 6 5 5 4 4 3 3 2 2 2 1 1 0 0 0 0 0 -0 -1 -1 -0 -1 -1
8 8 7 7 7 6 6 6 7 7 8 9 10 9 10 9 9 8 7 6 5 5 5 4 4 3 2 2 1 1 1 0 -0 -0 -0 -0 -1 -1 -1 -1 -1 -1 -1 -2
6 6 7 8 7 6 6 7 6 6 6 7 11 10 7 7 7 7 7 5 4 4 3 3 2 2 1 1 1 0 -0 -0 -1 -1 -1 -1 -1 -1 -1 -2 -2 -2 -3 -4
6 6 6 7 7 6 6 6 6 6 7 6 5 8 7 6 6 5 5 4 3 2 2 2 2 1 1 0 0 -0 -1 -1 -1 -1 -1 -1 -2 -2 -2 -3 -3 -4 -4 -5
6 5 6 7 7 6 6 6 6 6 7 6 7 6 7 7 6 5 4 3 3 2 1 0 0 -0 -0 0 -1 -2 -2 -1 -1 -2 -2 -2 -3 -3 -3 -4 -5 -6 -6 -6
5 5 5 6 6 6 6 6 6 5 4 5 3 6 6 6 4 3 2 2 2 2 2 1 1 0 -1 -1 -2 -2 -2 -2 -2 -2 -3 -3 -3 -4 -4 -5 -6 -7 -7 -8
5 5 5 5 5 4 4 4 4 4 3 4 4 5 5 5 3 2 3 2 1 0 0 1 0 -1 -1 -2 -2 -2 -2 -3 -3 -3 -3 -3 -4 -5 -6 -6 -7 -7 -8 -8
4 5 4 4 5 5 4 5 5 4 4 2 3 3 3 2 2 3 2 1 1 1 0 -0 -1 -2 -2 -2 -2 -2 -2 -3 -3 -3 -4 -5 -5 -6 -7 -7 -8 -8 -8 -9
4 3 3 4 4 4 3 4 4 3 3 2 2 2 2 2 2 2 1 1 -0 -0 -0 -1 -2 -2 -2 -2 -3 -3 -3 -3 -4 -4 -5 -5 -6 -7 -7 -8 -8 -8 -9 -9
3 2 1 2 3 2 3 4 3 3 3 2 2 2 2 2 1 1 1 -1 -0 -0 -1 -1 -2 -2 -3 -3 -3 -3 -3 -4 -5 -5 -6 -6 -7 -7 -8 -8 -8 -9 -9 -9
2 1 -0 0 1 -0 3 3 4 3 2 2 2 1 1 0 -1 -0 -1 -1 -2 -2 -2 -2 -2 -3 -3 -3 -4 -4 -4 -5 -5 -6 -7 -7 -7 -7 -8 -8 -9 -9 -9 -9
3 1 -0 0 0 2 4 3 2 2 2 1 0 0 -0 -0 -0 -1 -1 -2 -2 -2 -3 -3 -3 -4 -4 -4 -4 -4 -5 -6 -6 -6 -7 -7 -8 -8 -8 -9 -9 -9 -9 -9
3 1 -0 -1 -1 -2 1 2 1 0 1 -0 -0 -1 -1 -1 -2 -2 -3 -3 -3 -2 -3 -3 -4 -4 -5 -5 -5 -5 -6 -6 -7 -7 -8 -8 -8 -9 -9 -9 -9 -9 -9 -9
1 1 0 -1 -2 -1 -0 0 0 -0 -1 -1 -2 -2 -2 -2 -2 -3 -4 -4 -4 -4 -4 -4 -5 -5 -5 -5 -5 -6 -6 -7 -8 -8 -8 -8 -9 -9 -9 -9 -8 -9 -9 -9
1 0 -1 -2 -1 -1 -1 -1 -1 -2 -2 -2 -2 -2 -3 -3 -4 -4 -5 -5 -5 -5 -5 -5 -6 -6 -6 -6 -6 -7 -7 -8 -8 -8 -8 -9 -9 -9 -9 -8 -8 -9 -9 -8
-0 0 0 0 -0 -0 -1 -2 -3 -3 -3 -4 -3 -4 -4 -4 -4 -4 -5 -5 -5 -5 -6 -6 -6 -6 -6 -7 -7 -8 -8 -8 -8 -8 -9 -9 -8 -9 -8 -8 -8 -9 -8 -8
-1 -1 -1 -1 -1 -1 -2 -3 -3 -3 -3 -3 -3 -3 -4 -4 -4 -4 -6 -6 -6 -7 -7 -6 -6 -6 -7 -7 -8 -9 -9 -9 -9 -9 -9 -9 -8 -8 -8 -8 -8 -8 -7 -7
-1 -1 -1 -2 -2 -3 -3 -3 -3 -2 -3 -3 -3 -4 -4 -4 -4 -5 -6 -6 -7 -7 -7 -7 -7 -7 -7 -8 -9 -9 -9 -9 -9 -9 -9 -9 -8 -8 -8 -8 -8 -8 -8 -8
-1 -1 -2 -4 -4 -4 -4 -4 -4 -4 -4 -3 -4 -4 -5 -5 -4 -5 -7 -7 -6 -6 -6 -7 -7 -8 -8 -8 -9 -9 -9 -10 -10 -9 -9 -9 -9 -8 -8 -8 -8 -8 -8 -8